Powrót do katalogu

STARLINK-36908

AktywnyŁącznośćVLEO
NORAD 67945·PAYLOAD·🇺🇸 United States

Wystrzelony Feb 24, 2026 z Vandenberg Space Force Base

Loading…

Następne Przeloty (najbliższe 24 godziny)

TLE

ŚwieżeSource: CelesTrak SupGP

Epoka: Sep 15, 2026, 03:19 UTC

1 67945C 26037P   26258.13868056 -.00041758  00000+0 -15128-2 0  2582
2 67945  43.0012 200.5588 0001356 270.0539 225.0859 15.27592822    17

Śledź STARLINK-36908 w czasie rzeczywistym z AllMySat

Download on the App Store